Flag for U.S.A. Weather past 2 weeks in Metairie, Louisiana, U.S.A.

Now
74 °F

Partly cloudy.


Feels Like: 72 °F
Forecast: 73 / 77 °F
Wind: 6 mph from Northeast

Location: New Orleans International Airport

Current Time: Apr 27, 2015 at 4:30:39 AM

Latest Report: Apr 27, 2015 at 3:53 AM


Visibility: 7 mi

Pressure: 29.70 "Hg

Humidity: 91%

Dew point: 71 °F

Location of MetairieLocation

Historic Weather in Metairie — Graph

°F

Metairie temperature yesterday

Maximum temperature yesterday: 84 °F (at 1:53 PM)
Minimum temperature yesterday: 67 °F (at 3:53 AM)
Average temperature yesterday: 75 °F

Past Weeks' High & Low Weather Summary

 TemperatureHumidityPressure
High85 °F (Apr 25, 10:53 AM)94% (Apr 14, 3:53 AM)30.09 "Hg (Apr 14, 3:53 AM)
Low60 °F (Apr 22, 5:53 AM)30% (Apr 21, 2:53 PM)29.69 "Hg (Apr 26, 6:53 PM)
Average74 °F78%29.93 "Hg
* Reported Apr 12 2:53 AM — Apr 27 2:53 AM, Metairie, Weather by CustomWeather, © 2015

Note: Actual official high and low records may vary slightly from our data, if they occured in-between our weather recording intervals... More about our weather records

Advertising

Metairie weather history for previous 24 hours

 ConditionsComfort  
Time TempWeatherWind HumidityBarometerVisibility
2:53 AM
Mon, Apr 27
75 °FFog.3 mph88%29.69 "Hg7 mi
1:53 AM75 °FPartly cloudy.7 mph88%29.71 "Hg7 mi
12:53 AM75 °FPartly cloudy.3 mph88%29.72 "Hg7 mi
11:53 PM
Sun, Apr 26
75 °FPassing clouds.No wind88%29.72 "Hg7 mi
10:53 PM76 °FPassing clouds.No wind85%29.73 "Hg7 mi
9:53 PM77 °FPassing clouds.13 mph79%29.72 "Hg8 mi
8:53 PM77 °FPartly cloudy.5 mph74%29.74 "Hg10 mi
7:53 PM79 °FPartly sunny.6 mph58%29.71 "Hg10 mi
6:53 PM79 °FBroken clouds.10 mph58%29.69 "Hg10 mi
5:53 PM81 °FBroken clouds.9 mph65%29.70 "Hg10 mi
4:53 PM82 °FBroken clouds.9 mph67%29.71 "Hg9 mi
3:53 PM83 °FBroken clouds.5 mph68%29.74 "Hg7 mi
2:53 PM82 °FBroken clouds.7 mph70%29.75 "Hg7 mi
1:53 PM84 °FMostly cloudy.5 mph61%29.77 "Hg10 mi
12:53 PM81 °FMostly cloudy.No wind69%29.79 "Hg8 mi
11:53 AM79 °FBroken clouds.6 mph74%29.79 "Hg9 mi
10:53 AM78 °FCloudy.7 mph79%29.81 "Hg6 mi
9:56 AM74 °FFog.6 mph91%29.80 "Hg4 mi
8:53 AM73 °FFog.3 mph94%29.78 "Hg1 mi
7:53 AM72 °FFog.5 mph93%29.78 "Hg0 mi
6:53 AM72 °FFog.No wind91%29.77 "Hg0 mi
6:02 AM70 °FFog.No wind90%29.75 "Hg6 mi
5:53 AM70 °FFog.No wind90%29.75 "Hg6 mi
4:53 AM68 °FFog.No wind93%29.74 "Hg7 mi
Weather by CustomWeather, © 2015

See weather overviewHow to use our weather pages